[[{"header":{"parameterUnit":"m.s-1","parameterCategory":1,"la1":30.2992,"la2":30.254,"lo1":-89.0895,"lo2":-89.0443,"dy":0.0025,"dx":0.0025,"nx":19,"ny":19,"refTime":"2026-05-19T09:00:00:Z","depth":0,"parameterNumber":2,"parameterNumberName":"U-component_of_WINDS"},"data":[0,0,0,-1.2177,-1.2177,-1.2174,-1.2174,-1.218,-1.218,0,0,0,0,0,0,0,0,0,0,0,-1.2182,-1.2182,-1.2177,-1.2177,-1.2174,-1.2174,-1.218,-1.218,0,0,0,0,0,0,0,0,0,0,0,-1.2182,-1.2182,-1.2183,-1.2177,-1.2174,-1.2174,-1.218,-1.2179,0,0,0,0,0,0,0,0,0,0,-1.218,-1.2189,-1.2182,-1.2183,-1.2177,-1.2174,-1.2174,-1.2178,-1.2179,-1.2184,0,-1.219,0,-1.2185,-1.2181,-1.2181,0,0,0,-1.2174,-1.2189,-1.2184,-1.2183,-1.2177,-1.2174,-1.2175,-1.2179,-1.2179,-1.2185,-1.219,-1.219,-1.2185,-1.2181,-1.2181,-1.2224,-1.2225,0,0,-1.2174,-1.2184,-1.2184,-1.2184,-1.2185,-1.2175,-1.2175,-1.2179,-1.2185,-1.219,-1.219,-1.2185,-1.2181,-1.2181,-1.2224,-1.2224,0,0,0,-1.2176,-1.2185,-1.2179,-1.2184,-1.2183,-1.2175,-1.2175,-1.2185,-1.2182,-1.219,-1.2185,-1.2181,-1.2181,-1.2223,-1.2224,-1.2252,0,0,0,-1.2176,-1.2186,-1.218,-1.2186,-1.2183,-1.2184,-1.2181,-1.2182,-1.2182,-1.2185,-1.2181,-1.2181,-1.2223,-1.2224,-1.225,-1.2264,0,0,0,-1.2181,-1.2186,-1.2188,-1.2187,-1.2186,-1.2184,-1.2181,-1.2182,-1.218,-1.2181,-1.2181,-1.2223,-1.2224,-1.2249,-1.2261,-1.2278,0,0,0,-1.2189,-1.2212,-1.2188,-1.2213,-1.2186,-1.2201,-1.2181,-1.2192,-1.2196,-1.2181,-1.2223,-1.2224,-1.2248,-1.226,-1.2277,-1.2295,-1.2303,0,0,-1.2224,-1.2217,-1.2231,-1.2209,-1.2231,-1.22,-1.2227,-1.2221,-1.2211,-1.2221,-1.2221,-1.2251,-1.2261,-1.2278,-1.2347,-1.2354,0,0,0,-1.2246,-1.2256,-1.2259,-1.2264,-1.226,-1.2258,-1.2247,-1.2245,-1.2252,-1.2218,-1.2261,-1.2267,-1.2277,-1.2285,-1.2291,-1.2299,-1.2228,-1.2228,-1.2228,-1.2311,-1.2298,-1.232,-1.2307,-1.2312,-1.2301,-1.2304,-1.2299,-1.2284,-1.2295,-1.2298,-1.2341,-1.2351,-1.2355,-1.2364,-1.2306,-1.2306,-1.2306,-1.2306,-1.2363,-1.2375,-1.2356,-1.237,-1.2356,-1.2369,-1.2359,-1.2349,-1.2358,-1.2338,-1.2345,-1.2324,-1.2363,-1.237,-1.2308,-1.2308,-1.2308,-1.2307,-1.2307,-1.2405,-1.2408,-1.2406,-1.2411,-1.2418,-1.2404,-1.2414,-1.2401,-1.2389,-1.2397,-1.2399,-1.2399,-1.2397,-1.2399,-1.2399,-1.2399,-1.2399,-1.24,-1.24,-1.2449,-1.2445,-1.2455,-1.2454,-1.2456,-1.2456,-1.2446,-1.2448,-1.2446,-1.2436,-1.2436,-1.2421,-1.2369,-1.2357,-1.2402,-1.2401,-1.2401,-1.2401,-1.2401,-1.2507,-1.2492,-1.2508,-1.2509,-1.2507,-1.2515,-1.2498,-1.2503,-1.2502,-1.2508,-1.2491,-1.2455,-1.2447,-1.2442,-1.2432,-1.2494,-1.2494,-1.2494,-1.2494,-1.2542,-1.2537,-1.255,-1.2554,-1.2557,-1.2544,-1.2563,-1.2556,-1.2546,-1.2545,-1.2534,-1.252,-1.2515,-1.2509,-1.2503,-1.2493,-1.257,-1.257,-1.257,-1.2577,-1.2571,-1.259,-1.258,-1.2577,-1.2576,-1.2594,-1.26,-1.2586,-1.2573,-1.2544,-1.2541,-1.2517,-1.251,-1.2496,-1.2486,-1.2468,0,0]},{"header":{"parameterUnit":"m.s-1","parameterCategory":1,"la1":30.2992,"la2":30.254,"lo1":-89.0895,"lo2":-89.0443,"dy":0.0025,"dx":0.0025,"nx":19,"ny":19,"refTime":"2026-05-19T09:00:00:Z","depth":0,"parameterNumber":3,"parameterNumberName":"V-component_of_WINDS"},"data":[0,0,0,3.0844,3.0846,3.0909,3.0909,3.0993,3.0994,0,0,0,0,0,0,0,0,0,0,0,3.083,3.083,3.0844,3.0846,3.0908,3.0909,3.0993,3.0994,0,0,0,0,0,0,0,0,0,0,0,3.0829,3.083,3.0831,3.0846,3.0908,3.0909,3.0993,3.0944,0,0,0,0,0,0,0,0,0,0,3.0882,3.0872,3.083,3.0831,3.0847,3.0908,3.0909,3.0941,3.0947,3.0967,0,3.0987,0,3.0992,3.1,3.1,0,0,0,3.0843,3.0868,3.0881,3.0831,3.0847,3.0908,3.0879,3.0944,3.0951,3.0974,3.0988,3.0991,3.0993,3.1001,3.1001,3.113,3.1131,0,0,3.0839,3.0843,3.0877,3.0886,3.0878,3.0877,3.0881,3.0948,3.0963,3.0988,3.0993,3.0995,3.1001,3.1002,3.113,3.1131,0,0,0,3.0832,3.084,3.0852,3.0882,3.0893,3.0879,3.0884,3.096,3.0963,3.0994,3.0996,3.1002,3.1003,3.1129,3.113,3.1171,0,0,0,3.0829,3.0836,3.0851,3.0853,3.0892,3.0928,3.0894,3.0959,3.0966,3.0995,3.1002,3.1004,3.1128,3.113,3.1168,3.119,0,0,0,3.0824,3.0835,3.0846,3.0853,3.0881,3.0926,3.0934,3.096,3.0968,3.1,3.1004,3.1128,3.1129,3.1166,3.1186,3.1225,0,0,0,3.0819,3.088,3.0846,3.0915,3.088,3.0952,3.0933,3.0986,3.1019,3.1002,3.1128,3.113,3.1165,3.1183,3.1223,3.126,3.1276,0,0,3.0898,3.089,3.093,3.0901,3.098,3.0942,3.1026,3.1052,3.1052,3.1104,3.1107,3.1169,3.1185,3.1225,3.1362,3.1374,0,0,0,3.0956,3.0985,3.1005,3.1037,3.106,3.1081,3.1094,3.1104,3.1148,3.108,3.1194,3.1203,3.1226,3.1244,3.1255,3.1274,3.1138,3.1138,3.1138,3.1072,3.1069,3.1136,3.114,3.1171,3.1185,3.121,3.1225,3.1212,3.1239,3.1255,3.1338,3.1359,3.1367,3.1388,3.1273,3.1274,3.1274,3.1274,3.1188,3.1228,3.121,3.1268,3.1264,3.1312,3.1328,3.1317,3.1361,3.1326,3.1346,3.1309,3.1381,3.1399,3.1277,3.1276,3.1276,3.1276,3.1276,3.1264,3.1283,3.1294,3.1341,3.1376,3.1378,3.1422,3.1416,3.1411,3.1431,3.1447,3.1446,3.1445,3.1439,3.1439,3.1439,3.1439,3.144,3.144,3.1339,3.135,3.1388,3.1417,3.1437,3.1463,3.1476,3.1496,3.1515,3.1508,3.1508,3.1492,3.1388,3.1363,3.1444,3.1443,3.1443,3.1442,3.1442,3.1458,3.143,3.1489,3.1509,3.1542,3.1578,3.157,3.161,3.1625,3.1646,3.1626,3.155,3.1541,3.1533,3.1512,3.1627,3.1627,3.1627,3.1627,3.1523,3.1518,3.1577,3.1609,3.164,3.1639,3.1704,3.1716,3.1723,3.1731,3.1714,3.1685,3.1676,3.1672,3.1661,3.1641,3.1786,3.1787,3.1787,3.1596,3.1594,3.1652,3.1659,3.1685,3.1707,3.1768,3.1805,3.1807,3.1793,3.1738,3.1732,3.1685,3.167,3.1655,3.1637,3.1601,0,0]}]]